Regional Weather Roundup
Issued by NWS Wilmington, NC

Home | Current Version | Previous Version | Text Only | Print | Product List | Glossary On
Versions: 1 2 3 4 5 6 7 8 9 10 11 12 13 14 15 16 17 18 19 20 21 22 23 24 25 26 27 28 29 30 31 32 33 34 35 36 37 38 39 40 41 42 43 44 45 46 47 48 49 50
000
ASUS42 KILM 071113
RWRILM
RWRILM
REGIONAL HOURLY WEATHER ROUNDUP
NATIONAL WEATHER SERVICE WILMINGTON NC
700 AM EDT TUE JUL 07 2015

NOTE: "FAIR" INDICATES FEW OR NO CLOUDS BELOW 12,000 FEET WITH NO
SIGNIFICANT WEATHER AND/OR OBSTRUCTIONS TO VISIBILITY.

...............WFO WILMINGTON COUNTY WARNING AREA...............

......COASTAL NC AND SC COUNTIES......

CITY           SKY/WX    TMP DP  RH WIND       PRES   REMARKS
WILMINGTON     CLEAR     75  73  93 S3        30.14R
N MYRTLE BEACH CLEAR     76  73  91 SW6       30.14R
MYRTLE BEACH   CLEAR     75  70  83 CALM      30.15R

......INLAND NC AND SC COUNTIES.......

CITY           SKY/WX    TMP DP  RH WIND       PRES   REMARKS
LUMBERTON      PTCLDY    74  71  91 CALM      30.12R FOG
ELIZABETHTOWN  CLEAR     72  72  99 CALM      30.12S
WHITEVILLE     CLEAR     73  71  94 CALM      30.13R FOG
FLORENCE       CLEAR     73  72  96 S3        30.13R
DARLINGTON     CLEAR     73  70  88 S5        30.13R

....................REST OF NORTH CAROLINA......................

.........EASTERN NC.........

CITY           SKY/WX    TMP DP  RH WIND       PRES   REMARKS
CAPE HATTERAS  SUNNY     76  75  97 SW6       30.14R
JACKSONVILLE   CLEAR     73  66  78 SW3       30.13S
MOREHEAD CITY  MOSUNNY   80  75  84 SW7       30.13S
KENANSVILLE    CLEAR     72  70  96 CALM      30.13S FOG
NEW BERN       SUNNY     75  73  93 S5        30.14R
ELIZABETH CITY SUNNY     77  74  90 S10       30.11R

.........CENTRAL NC.........

CITY           SKY/WX    TMP DP  RH WIND       PRES   REMARKS
RALEIGH DURHAM PTCLDY    73  70  90 CALM      30.12R
ROCKY MOUNT    PTCLDY    73  71  93 S3        30.11R
ROANOKE RAPIDS NOT AVBL
FAYETTEVILLE   CLEAR     73  71  93 S5        30.11R
HOFFMAN        PTCLDY    73  71  96 SW3       30.15R

.........WESTERN NC.........

CITY           SKY/WX    TMP DP  RH WIND       PRES   REMARKS
CHARLOTTE      CLEAR     72  68  87 CALM      30.12R
GREENSBORO     CLEAR     70  68  93 CALM      30.13R
HICKORY        NOT AVBL
BOONE          NOT AVBL
ASHEVILLE      NOT AVBL

.....................REST OF SOUTH CAROLINA.....................

.........EASTERN SC.........

CITY           SKY/WX    TMP DP  RH WIND       PRES   REMARKS
CHARLESTON     PTCLDY    75  72  90 CALM      30.14R
BEAUFORT MCAS  MOCLDY    75  72  90 CALM      30.14R
HILTON HEAD    CLEAR     73  73 100 SW6       30.15R

.........CENTRAL SC.........

CITY           SKY/WX    TMP DP  RH WIND       PRES   REMARKS
COLUMBIA       PTCLDY    73  70  90 S3        30.11R
ORANGEBURG     CLEAR     71  69  93 CALM      30.13R FOG
SUMTER SHAW    CLEAR     73  71  95 S3        30.11R

.........WESTERN SC.........

CITY           SKY/WX    TMP DP  RH WIND       PRES   REMARKS
GREENVILLE     NOT AVBL
ROCK HILL      CLEAR     70  69  97 S5        30.12R FOG
ANDERSON       FOG       68  67  96 CALM      30.14R VSB 1/4
CLEMSON        NOT AVBL
GREENWOOD      CLEAR     71  69  93 SW3       30.14R FOG


...................COASTAL AND OFFSHORE REPORTS..................

................LOCAL PIERS AND NC RESERVE................


STATION/POSITION TIME  SKY/WX   TEMP    WIND        PRES    VSBY
                                AIR SEA DIR/SP/G
                 (UTC)          (F)     (DEG/KT/KT) (MB)    (MI)
JOHNY MRCER PIER 1000            77 77  240/  4/  5 1019.7R
NC RESRV MASNBRO NOT AVBL
OCEAN CREST PIER NOT AVBL
SPRINGMAID  PIER 1000            75 82  210/  4/  4 1020.1R


................COASTAL AND OFFSHORE BUOYS................


STATION/POSITION TIME  SKY/WX   TEMP    WIND        PRES    VSBY
                                AIR SEA DIR/SP/G
                 (UTC)          (F)     (DEG/KT/KT) (MB)    (MI)
DIMNDSHOAL 41025 1050            80 82  210/ 14/ 16 1020.3R
WVE H/P(F/S)=  3/ 8 WND WVE H/P(F/S)=  3/ 4 SWL H/P/D(F/S/D)=  2/140/ 8

CAPE LOOKOUT     1100            79     220/  8/ 12 1020.3R
ONSLOW BAY 41036 NOT AVBL
5 WRITEBCH 41038 1008            78 78  230/  8/ 10 1020.2R
MASONBORO  41110 1019               78                N/A
WVE H/P(F/S)=  2/ 8 WND WVE H/P(F/S)=  2/ 8

WILM HARBR 41108 1011               82                N/A
WVE H/P(F/S)=  3/ 4 WND WVE H/P(F/S)=  3/ 4

27WRITEBCH 41037 1000               80  260/ 10/ 12   N/A
FRYING PAN 41013 1050            80 79  240/  6/  8 1021.1R
WVE H/P(F/S)=  3/ 8 WND WVE H/P(F/S)=  2/ 4 SWL H/P/D(F/S/D)=  3/120/ 8

SUNST NRSH 41024 1008            80     240/ 10/ 16 1020.0R
CAPRS NRSH 41029 1008            80     240/  6/ 10 1020.3R
EDISTO     41004 1050            81 83  220/  6/  8 1020.3R
WVE H/P(F/S)=  3/ 8 WND WVE H/P(F/S)=  2/ 4 SWL H/P/D(F/S/D)=  3/ 8



..........OFFSHORE BUOYS BEYOND 100 NM OFFSHORE...........
.....IN A TRIANGLE---HAT TO BERMUDA TO BAHAMAS TO HAT.....


STATION/POSITION TIME  SKY/WX   TEMP    WIND        PRES    VSBY
                                AIR SEA DIR/SP/G
                 (UTC)          (F)     (DEG/KT/KT) (MB)    (MI)
150E HAT   41001 NOT AVBL
W BERMUDA  41048 1050            81 81  240/  2/  2 1023.7R
WVE H/P(F/S)=  3/ 8 SWL H/P/D(F/S/D)=  3/120/ 8

ATLANTIC S 41049 1050            82 83   70/ 12/ 14 1023.0R
WVE H/P(F/S)=  4/ 8 WND WVE H/P(F/S)=  2/ 4 SWL H/P/D(F/S/D)=  3/130/ 8

E BAHAMAS  41046 1050            82 83   90/ 14/ 17 1020.4R
WVE H/P(F/S)=  5/ 8 WND WVE H/P(F/S)=  3/ 7 SWL H/P/D(F/S/D)=  3/110/ 8

NE BAHAMAS 41047 1050            83 84  120/  8/ 10 1022.0R
WVE H/P(F/S)=  3/ 8 WND WVE H/P(F/S)=  2/ 4 SWL H/P/D(F/S/D)=  3/130/ 8

120E CANVRL41010 1020            83 83  160/  8/ 10 1021.1R

END


USA.gov is the U.S. government's official web portal to all federal, state and local government web resources and services.